This is the latest recevied weather packets stored in our database for station/object W4DHW-4. If no packets are shown the sender has not sent any weather packets the latest 10 day(s).
| Time | Temp. | Humidity | Pressure | Rain* | Wind** | Luminosity | Snow |
|---|---|---|---|---|---|---|---|
| 1777799358 | 2.78° C | 82% | 1017.1 hPa | 0 mm | - | 0 W/m² | - |
| 1777799054 | 2.78° C | 80% | 1017 hPa | 0 mm | - | 0 W/m² | - |
| 1777798750 | 2.78° C | 80% | 1016.7 hPa | 0 mm | - | 0 W/m² | - |
| 1777798447 | 2.78° C | 80% | 1016.8 hPa | 0 mm | - | 0 W/m² | - |
| 1777798143 | 2.22° C | 82% | 1016.7 hPa | 0 mm | - | 0 W/m² | - |
| 1777797841 | 2.22° C | 86% | 1016.8 hPa | 0 mm | - | 0 W/m² | - |
| 1777797539 | 1.67° C | 90% | 1016.9 hPa | 0 mm | - | 0 W/m² | - |
| 1777797235 | 1.67° C | 90% | 1016.9 hPa | 0 mm | - | 0 W/m² | - |
| 1777796932 | 1.67° C | 91% | 1017.2 hPa | 0 mm | - | 0 W/m² | - |
| 1777796629 | 1.11° C | 91% | 1017.1 hPa | 0 mm | - | 0 W/m² | - |
| 1777796325 | 1.11° C | 91% | 1016.6 hPa | 0 mm | - | 0 W/m² | - |
| 1777796021 | 1.11° C | 92% | 1016.8 hPa | 0 mm | - | 0 W/m² | - |
| 1777795718 | 1.11° C | 92% | 1016.9 hPa | 0 mm | - | 0 W/m² | - |
| 1777795415 | 1.67° C | 92% | 1016.3 hPa | 0 mm | - | 0 W/m² | - |
| 1777795111 | 1.67° C | 91% | 1016.6 hPa | 0 mm | - | 0 W/m² | - |
| 1777794807 | 1.67° C | 91% | 1016.6 hPa | 0 mm | - | 0 W/m² | - |
| 1777794504 | 1.67° C | 91% | 1016.4 hPa | 0 mm | - | 0 W/m² | - |
| 1777794199 | 1.67° C | 91% | 1016.5 hPa | 0 mm | - | 0 W/m² | - |
| 1777793896 | 1.67° C | 91% | 1016.5 hPa | 0 mm | - | 0 W/m² | - |
| 1777793593 | 1.67° C | 91% | 1016.6 hPa | 0 mm | - | 0 W/m² | - |
| 1777793291 | 1.67° C | 91% | 1016.2 hPa | 0 mm | - | 0 W/m² | - |
| 1777792988 | 1.67° C | 90% | 1016.5 hPa | 0 mm | - | 0 W/m² | - |
| 1777792684 | 1.67° C | 90% | 1016.1 hPa | 0 mm | - | 0 W/m² | - |
| 1777792382 | 1.67° C | 90% | 1016.2 hPa | 0 mm | - | 0 W/m² | - |
| 1777792077 | 2.22° C | 90% | 1016 hPa | 0 mm | - | 0 W/m² | - |
* Rain latest hour (hover to see other rain measurements)
** Current wind speed in m/s (hover to see current wind gust speed)